Weather History for Kake, AK

Change the Weather History Date:

Monday, December 31, 2012

  Actual Average Record
Temperature  
Mean Temperature 36 °F -  
Max Temperature 41 °F 33 °F 44 °F (2001)
Min Temperature 32 °F 26 °F 8 °F (1996)
Degree Days  
Heating Degree Days 28    
Moisture  
Dew Point 34 °F    
Average Humidity 87    
Maximum Humidity 93    
Minimum Humidity 75    
Precipitation  
Precipitation 0.29 in - - ()
Sea Level Pressure  
Sea Level Pressure 30.16 in    
Wind  
Wind Speed 6 mph (East)    
Max Wind Speed 12 mph    
Max Gust Speed 18 mph    
Visibility 10 miles    
Events      
Averages and records for this station are not official NWS values.
T = Trace of Precipitation, MM = Missing Value Source: NWS Daily Summary

Daily Weather History Graph

Daily Weather History Graph

Search for Another Location

Airport:

Trip Planner

Search our weather history database for the weather conditions in past years. The results will help you decide how hot, cold, wet, or windy it might be!

Date:

Astronomy

Dec. 31, 2012 Rise Set
Actual Time 8:33 AM AKST 3:24 PM AKST
Civil Twilight 7:44 AM AKST 4:13 PM AKST
Nautical Twilight 6:54 AM AKST 5:03 PM AKST
Astronomical Twilight 6:07 AM AKST 5:50 PM AKST
Moon 7:52 PM AKST (12/31) 9:34 AM AKST (12/31)
Length of Visible Light 8h 28m
Length of Day
6h 51m
Waning Gibbous, 89% of the Moon is Illuminated
Dec 31
Waning Gibbous
Jan 4
Last Quarter
Jan 11
New
Jan 18
First Quarter
Jan 26
Full

Hourly Weather History & Observations

Time (AKST) Temp. Windchill Dew Point Humidity Pressure Visibility Wind Dir Wind Speed Gust Speed Precip Events Conditions
12:16 AM 39.2 °F 35.0 °F 35.6 °F 87% 29.80 in 9.0 mi East 5.8 mph - N/A   Overcast
12:36 AM 39.2 °F 34.2 °F 35.6 °F 87% 29.80 in 10.0 mi East 6.9 mph - 0.01 in   Overcast
12:56 AM 39.2 °F 33.6 °F 35.6 °F 87% 29.80 in 10.0 mi East 8.1 mph - 0.02 in   Overcast
1:16 AM 39.2 °F 34.2 °F 35.6 °F 87% 29.80 in 10.0 mi East 6.9 mph - N/A   Overcast
1:36 AM 39.2 °F 37.0 °F 35.6 °F 87% 29.81 in 9.0 mi SE 3.5 mph - 0.02 in   Overcast
1:56 AM 39.2 °F 35.9 °F 37.4 °F 93% 29.82 in 9.0 mi ESE 4.6 mph - 0.04 in   Overcast
2:16 AM 39.2 °F 35.9 °F 35.6 °F 87% 29.83 in 8.0 mi East 4.6 mph - 0.03 in   Overcast
2:36 AM 39.2 °F 35.9 °F 35.6 °F 87% 29.83 in 10.0 mi East 4.6 mph - 0.04 in   Overcast
2:56 AM 39.2 °F 35.9 °F 35.6 °F 87% 29.84 in 10.0 mi East 4.6 mph - 0.06 in   Overcast
3:16 AM 39.2 °F - 35.6 °F 87% 29.86 in 10.0 mi Calm Calm - 0.03 in   Overcast
3:36 AM 39.2 °F - 35.6 °F 87% 29.88 in 10.0 mi Calm Calm - 0.08 in   Overcast
3:56 AM 37.4 °F - 35.6 °F 93% 29.89 in 8.0 mi Calm Calm - 0.12 in   Overcast
4:16 AM 37.4 °F - 35.6 °F 93% 29.91 in 9.0 mi Calm Calm - 0.03 in   Overcast
4:36 AM 37.4 °F - 35.6 °F 93% 29.92 in 9.0 mi Calm Calm - 0.05 in   Mostly Cloudy
4:56 AM 37.4 °F 32.8 °F 33.8 °F 87% 29.94 in 10.0 mi ENE 5.8 mph - 0.05 in   Overcast
5:16 AM 35.6 °F 32.8 °F 33.8 °F 93% 29.95 in 10.0 mi ENE 3.5 mph - N/A   Overcast
5:36 AM 37.4 °F - 33.8 °F 87% 29.98 in 7.0 mi Calm Calm - N/A   Overcast
5:56 AM 37.4 °F - 33.8 °F 87% 29.98 in 10.0 mi Calm Calm - N/A   Overcast
6:16 AM 35.6 °F - 33.8 °F 93% 30.01 in 10.0 mi Calm Calm - N/A   Overcast
6:36 AM 35.6 °F - 33.8 °F 93% 30.03 in 10.0 mi Calm Calm - N/A   Overcast
6:56 AM 35.6 °F 31.7 °F 32.0 °F 87% 30.04 in 9.0 mi ENE 4.6 mph - N/A   Overcast
7:16 AM 33.8 °F 27.7 °F 32.0 °F 93% 30.05 in 3.0 mi ENE 6.9 mph - N/A   Overcast
7:36 AM 33.8 °F 28.6 °F 30.2 °F 87% 30.07 in 2.5 mi East 5.8 mph - N/A   Overcast
7:56 AM 32.0 °F 25.6 °F 30.2 °F 93% 30.09 in 10.0 mi ENE 6.9 mph - N/A   Scattered Clouds
8:16 AM 33.8 °F 30.8 °F 30.2 °F 87% 30.11 in 10.0 mi East 3.5 mph - N/A   Clear
8:36 AM 32.0 °F 24.8 °F 28.4 °F 87% 30.14 in 10.0 mi East 8.1 mph - N/A   Clear
8:56 AM 35.6 °F 29.2 °F 33.8 °F 93% 30.16 in 10.0 mi East 8.1 mph - N/A   Clear
9:16 AM 35.6 °F 28.6 °F 33.8 °F 93% 30.17 in 10.0 mi East 9.2 mph - N/A   Clear
9:36 AM 35.6 °F 28.6 °F 33.8 °F 93% 30.18 in 10.0 mi East 9.2 mph - N/A   Clear
9:56 AM 37.4 °F 30.3 °F 33.8 °F 87% 30.19 in 10.0 mi East 10.4 mph - N/A   Clear
10:16 AM 37.4 °F 30.3 °F 33.8 °F 87% 30.20 in 10.0 mi East 10.4 mph - N/A   Scattered Clouds
10:36 AM 37.4 °F 29.8 °F 35.6 °F 93% 30.22 in 10.0 mi East 11.5 mph 16.1 mph N/A   Mostly Cloudy
10:56 AM 37.4 °F 32.1 °F 33.8 °F 87% 30.24 in 10.0 mi East 6.9 mph - N/A   Overcast
11:16 AM 37.4 °F 30.3 °F 35.6 °F 93% 30.24 in 10.0 mi East 10.4 mph - N/A   Overcast
11:36 AM 39.2 °F 34.2 °F 35.6 °F 87% 30.25 in 10.0 mi ESE 6.9 mph - N/A   Overcast
11:56 AM 39.2 °F 35.9 °F 35.6 °F 87% 30.25 in 10.0 mi ESE 4.6 mph - N/A   Overcast
12:16 PM 39.2 °F 35.0 °F 35.6 °F 87% 30.25 in 10.0 mi ESE 5.8 mph - N/A   Overcast
12:36 PM 39.2 °F 33.6 °F 35.6 °F 87% 30.26 in 10.0 mi East 8.1 mph - N/A   Overcast
12:56 PM 39.2 °F 33.0 °F 35.6 °F 87% 30.25 in 10.0 mi ESE 9.2 mph - N/A   Overcast
1:16 PM 41.0 °F 35.8 °F 35.6 °F 81% 30.26 in 10.0 mi ESE 8.1 mph - N/A   Overcast
1:36 PM 39.2 °F 34.2 °F 35.6 °F 87% 30.26 in 10.0 mi ESE 6.9 mph - N/A   Mostly Cloudy
1:56 PM 39.2 °F 34.2 °F 35.6 °F 87% 30.27 in 10.0 mi East 6.9 mph - N/A   Mostly Cloudy
2:16 PM 39.2 °F 33.0 °F 35.6 °F 87% 30.27 in 10.0 mi SE 9.2 mph - N/A   Mostly Cloudy
2:36 PM 39.2 °F 34.2 °F 35.6 °F 87% 30.28 in 10.0 mi SE 6.9 mph - N/A   Overcast
2:56 PM 39.2 °F 35.9 °F 35.6 °F 87% 30.30 in 9.0 mi SE 4.6 mph - N/A   Overcast
3:16 PM 39.2 °F 37.0 °F 35.6 °F 87% 30.31 in 8.0 mi SE 3.5 mph - N/A   Overcast
3:36 PM 37.4 °F - 33.8 °F 87% 30.32 in 8.0 mi Calm Calm - N/A   Overcast
4:16 PM 37.4 °F 31.4 °F 35.6 °F 93% 30.33 in 10.0 mi East 8.1 mph - N/A   Overcast
4:36 PM 37.4 °F 32.8 °F 33.8 °F 87% 30.34 in 10.0 mi ESE 5.8 mph - N/A   Overcast
4:56 PM 39.2 °F 33.6 °F 35.6 °F 87% 30.35 in 10.0 mi ESE 8.1 mph - N/A   Overcast
5:16 PM 39.2 °F 33.6 °F 33.8 °F 81% 30.35 in 10.0 mi ESE 8.1 mph - N/A   Overcast
5:36 PM 37.4 °F 30.8 °F 33.8 °F 87% 30.35 in 10.0 mi East 9.2 mph - N/A   Overcast
5:56 PM 37.4 °F 30.3 °F 33.8 °F 87% 30.35 in 10.0 mi East 10.4 mph - N/A   Overcast
6:16 PM 37.4 °F 30.3 °F 33.8 °F 87% 30.35 in 10.0 mi East 10.4 mph - N/A   Mostly Cloudy
6:36 PM 37.4 °F 30.8 °F 33.8 °F 87% 30.35 in 10.0 mi ESE 9.2 mph - N/A   Overcast
6:56 PM 39.2 °F 33.6 °F 33.8 °F 81% 30.35 in 10.0 mi East 8.1 mph - N/A   Overcast
7:16 PM 39.2 °F 33.0 °F 33.8 °F 81% 30.32 in 10.0 mi East 9.2 mph - N/A   Overcast
7:36 PM 39.2 °F 32.5 °F 33.8 °F 81% 30.32 in 10.0 mi East 10.4 mph 16.1 mph N/A   Overcast
7:56 PM 39.2 °F 33.0 °F 33.8 °F 81% 30.34 in 10.0 mi East 9.2 mph - N/A   Overcast
8:16 PM 39.2 °F 33.0 °F 33.8 °F 81% 30.33 in 10.0 mi East 9.2 mph - N/A   Overcast
8:36 PM 39.2 °F 33.6 °F 33.8 °F 81% 30.33 in 10.0 mi ESE 8.1 mph - N/A   Overcast
8:56 PM 37.4 °F 33.8 °F 33.8 °F 87% 30.34 in 10.0 mi SSE 4.6 mph - N/A   Overcast
9:16 PM 37.4 °F 33.8 °F 33.8 °F 87% 30.34 in 10.0 mi SE 4.6 mph - N/A   Overcast
9:36 PM 37.4 °F 32.1 °F 33.8 °F 87% 30.35 in 10.0 mi ESE 6.9 mph - N/A   Overcast
9:56 PM 37.4 °F 30.8 °F 33.8 °F 87% 30.33 in 10.0 mi East 9.2 mph - N/A   Overcast
10:16 PM 37.4 °F 31.4 °F 33.8 °F 87% 30.33 in 10.0 mi East 8.1 mph - N/A   Mostly Cloudy
10:36 PM 37.4 °F 32.1 °F 33.8 °F 87% 30.34 in 10.0 mi East 6.9 mph - N/A   Partly Cloudy
10:56 PM 37.4 °F 31.4 °F 33.8 °F 87% 30.32 in 10.0 mi East 8.1 mph - N/A   Scattered Clouds
11:16 PM 37.4 °F 30.3 °F 32.0 °F 81% 30.30 in 10.0 mi East 10.4 mph 18.4 mph N/A   Partly Cloudy
11:36 PM 39.2 °F 33.0 °F 32.0 °F 75% 30.31 in 10.0 mi ESE 9.2 mph - N/A   Mostly Cloudy
11:56 PM 39.2 °F 35.0 °F 33.8 °F 81% 30.34 in 10.0 mi ESE 5.8 mph - N/A   Overcast